Christmas Island, Christmas Island

4:18 PM CXT on February 21, 2017 (GMT +0700)
Christmas Island

Weather History for YPXM - October, 2013

Change the Weather History Date:

Tuesday, October 1, 2013

  Actual Average Record
Temperature  
Mean Temperature 78 °F -  
Max Temperature 81 °F 76 °F 81 °F (2013)
Min Temperature 74 °F 71 °F 71 °F (1997)
Cooling Degree Days 12    
Growing Degree Days 28 (Base 50)    
Moisture  
Dew Point 71 °F    
Average Humidity 83    
Maximum Humidity 89    
Minimum Humidity 73    
Precipitation  
Precipitation 0.00 in - - ()
Sea Level Pressure  
Sea Level Pressure 29.92 in    
Wind  
Wind Speed 12 mph ()    
Max Wind Speed 16 mph    
Max Gust Speed -    
Visibility 6.0 miles    
Events      
Averages and records for this station are not official NWS values.
T = Trace of Precipitation, MM = Missing Value Source: Averaged Metar Reports

Daily Weather History Graph

Daily Weather History Graph

Search for Another Location

Airport or City:

Trip Planner

Search our weather history database for the weather conditions in past years. The results will help you decide how hot, cold, wet, or windy it might be!

Date:

Astronomy

Oct. 01, 2013 Rise Set
Actual Time 5:41 AM CXT 5:52 PM CXT
Civil Twilight 5:20 AM CXT 6:13 PM CXT
Nautical Twilight 4:55 AM CXT 6:38 PM CXT
Astronomical Twilight 4:31 AM CXT 7:02 PM CXT
Moon 2:42 AM CXT (10/1) 2:48 PM CXT (10/1)
Length of Visible Light 12h 53m
Length of Day
12h 11m
Waning Crescent, 15% of the Moon is Illuminated
Oct 1
Waning Crescent
Oct 5
New
Oct 12
First Quarter
Oct 19
Full
Oct 27
Last Quarter

Hourly Weather History & Observations

Time (CXT) Temp. Dew Point Humidity Pressure Visibility Wind Dir Wind Speed Gust Speed Precip Events Conditions
12:00 AM 74 °F 70 °F 83% 29.90 in - East 10.4 mph - -  
12:00 AM 75.2 °F 69.8 °F 83% 29.92 in - East 10.4 mph - N/A   Overcast
1:00 AM 74 °F 70 °F 84% 29.88 in - East 10.4 mph - -  
1:00 AM 75.2 °F 69.8 °F 83% 29.92 in - East 10.4 mph - N/A   Overcast
2:00 AM 75.2 °F 69.8 °F 83% 29.92 in - East 11.5 mph - N/A   Overcast
3:00 AM 74 °F 71 °F 88% 29.87 in - East 11.5 mph - -   Overcast
3:00 AM 75.2 °F 71.6 °F 89% 29.92 in - East 11.5 mph - N/A   Overcast
4:00 AM 75 °F 70 °F 80% 29.87 in - East 12.7 mph - -  
4:00 AM 75.2 °F 69.8 °F 83% 29.92 in - East 12.7 mph - N/A   Overcast
5:00 AM 75.2 °F 69.8 °F 83% 29.92 in - East 11.5 mph - N/A   Overcast
6:00 AM 75 °F 70 °F 80% 29.90 in - East 11.5 mph - -  
6:00 AM 75.2 °F 69.8 °F 83% 29.92 in - East 11.5 mph - N/A   Overcast
7:00 AM 76 °F 70 °F 76% 29.92 in - East 12.7 mph - -  
7:00 AM 75.2 °F 69.8 °F 83% 29.95 in - East 12.7 mph - N/A   Overcast
8:00 AM 77.0 °F 71.6 °F 83% 29.98 in - East 13.8 mph - N/A   Overcast
9:00 AM 77 °F 71 °F 77% 29.96 in - East 15.0 mph - -   Overcast
9:00 AM 77.0 °F 71.6 °F 83% 29.98 in - East 15.0 mph - N/A   Overcast
10:00 AM 78 °F 71 °F 73% 29.95 in - East 15.0 mph - -  
10:00 AM 78.8 °F 71.6 °F 78% 29.98 in 6.2 mi East 15.0 mph - N/A   Overcast
11:00 AM 78.8 °F 71.6 °F 78% 29.98 in 6.2 mi East 16.1 mph - N/A   Mostly Cloudy
12:00 PM 79 °F 73 °F 77% 29.91 in - East 15.0 mph - -   Overcast
12:00 PM 78.8 °F 73.4 °F 83% 29.95 in 6.2 mi East 15.0 mph - N/A   Overcast
1:00 PM 78 °F 73 °F 80% 29.90 in - East 13.8 mph - -  
1:00 PM 78.8 °F 73.4 °F 83% 29.92 in 6.2 mi East 13.8 mph - N/A   Mostly Cloudy
2:00 PM 78.8 °F 73.4 °F 83% 29.92 in 6.2 mi East 13.8 mph - N/A   Mostly Cloudy
3:00 PM 79 °F 72 °F 75% 29.86 in - East 15.0 mph - -  
3:00 PM 78.8 °F 71.6 °F 78% 29.89 in 6.2 mi East 15.0 mph - N/A   Mostly Cloudy
3:03 PM 78.8 °F 73.4 °F 83% 29.89 in 6.2 mi East 15.0 mph - N/A   Mostly Cloudy
3:04 PM 78.8 °F 73.4 °F 83% 29.89 in 6.2 mi East 13.8 mph - N/A   Mostly Cloudy
3:23 PM 78.8 °F 73.4 °F 83% 29.89 in 3.7 mi East 12.7 mph - N/A   Scattered Clouds
3:41 PM 78.8 °F 73.4 °F 83% 29.89 in 6.2 mi East 13.8 mph - N/A   Mostly Cloudy
4:00 PM 78 °F 72 °F 77% 29.86 in - East 13.8 mph - -  
4:00 PM 77.0 °F 71.6 °F 83% 29.89 in 6.2 mi East 13.8 mph - N/A   Mostly Cloudy
5:00 PM 77.0 °F 71.6 °F 83% 29.92 in - East 12.7 mph - N/A   Mostly Cloudy
6:00 PM 76 °F 71 °F 81% 29.89 in - East 11.5 mph - -   Overcast
6:00 PM 75.2 °F 71.6 °F 89% 29.92 in - East 11.5 mph - N/A   Mostly Cloudy
7:00 PM 76 °F 71 °F 82% 29.91 in - ESE 12.7 mph - -  
7:00 PM 75.2 °F 71.6 °F 89% 29.95 in - ESE 12.7 mph - N/A   Mostly Cloudy
8:00 PM 75.2 °F 71.6 °F 89% 29.95 in - East 15.0 mph - N/A   Overcast
9:00 PM 75 °F 71 °F 85% 29.94 in - ESE 15.0 mph - -   Overcast
9:00 PM 75.2 °F 71.6 °F 89% 29.98 in - ESE 15.0 mph - N/A   Overcast
10:00 PM 75 °F 71 °F 85% 29.96 in - East 15.0 mph - -  
10:00 PM 75.2 °F 71.6 °F 89% 29.98 in - East 15.0 mph - N/A   Mostly Cloudy
11:00 PM 75.2 °F 71.6 °F 89% 29.98 in - East 16.1 mph - N/A   Overcast